[[{"header":{"parameterUnit":"m.s-1","parameterCategory":2,"la1":30.2991,"la2":30.254,"lo1":-89.0895,"lo2":-89.0444,"dy":0.0017,"dx":0.0017,"nx":28,"ny":28,"refTime":"2024-07-29T09:00:00:Z","depth":"0","parameterNumber":2,"parameterNumberName":"U-component_of_CURRENTS"},"data":[0,0,0,0,0,0,0,0,0,0,0,0,0,0,0,0,0,0,0,0,0,0,0,0,0,0,0,0,0,0,0,0,0,0,0,0,0,0,0,0,0,0,0,0,0,0,0,0,0,0,0,0,0,0,0,0,0,0,0.497,0.4971,0,0.5054,0.5054,0.5055,0.5097,0.5098,0.5098,0.5099,0.5089,0.5088,0.5088,0,0,0,0,0,0,0,0,0,0,0,0,0,0.4725,0.473,0.4969,0.4971,0.4972,0.5054,0.5054,0.5055,0.5097,0.5098,0.5098,0.5099,0.5089,0.5089,0.5088,0,0,0,0,0,0,0,0,0,0,0,0,0,0.4819,0.4731,0.4969,0.5006,0.5011,0.5053,0.5054,0.5055,0.5097,0.5098,0.5098,0.5099,0.509,0.5089,0.5088,0.507,0,0,0.5085,0.5084,0,0,0,0,0,0,0,0,0.4813,0.4827,0.4999,0.5004,0.5009,0.5069,0.4965,0.5057,0.5097,0.506,0.5099,0.5099,0.5076,0.5076,0.5086,0.5069,0.5069,0.5085,0.5084,0.5084,0.5083,0,0,0,0,0,0,0,0.4807,0.4823,0.4999,0.5001,0.5007,0.4978,0.4992,0.4982,0.5059,0.5063,0.5068,0.5083,0.5077,0.5087,0.5086,0.5069,0.5085,0.5084,0.5083,0.5083,0.5022,0.5021,0,0,0,0,0,0,0.4812,0.4818,0.4996,0.5002,0.4915,0.4982,0.4998,0.5046,0.5061,0.5066,0.5083,0.5085,0.5088,0.5087,0.5086,0.5048,0.5084,0.5083,0.5082,0.5023,0.5021,0.502,0,0,0,0,0,0,0.4807,0.4828,0.4993,0.4912,0.4932,0.4987,0.5039,0.5047,0.5059,0.5078,0.508,0.5086,0.5089,0.5087,0.5075,0.5048,0.5082,0.5082,0.5024,0.5022,0.5021,0.4982,0,0,0,0,0,0,0.48,0.4826,0.4835,0.4914,0.4937,0.4987,0.5039,0.5049,0.5069,0.5073,0.5081,0.5081,0.5089,0.5077,0.5074,0.5047,0.5081,0.5025,0.5023,0.5021,0.4984,0.4979,0.4975,0,0,0,0,0,0.4791,0.4764,0.4836,0.4856,0.4958,0.4986,0.4992,0.503,0.5069,0.5048,0.5076,0.5081,0.5062,0.5075,0.5073,0.5045,0.5026,0.5024,0.5021,0.4987,0.498,0.4975,0,0,0,0,0,0,0.4599,0.477,0.4849,0.4863,0.4925,0.4994,0.4959,0.5026,0.5036,0.5031,0.5072,0.5072,0.5051,0.5052,0.5067,0.5021,0.5042,0.5039,0.5017,0.5011,0.5006,0.4961,0.508,0,0,0,0,0,0.4587,0.4645,0.4779,0.4778,0.481,0.4901,0.4912,0.4957,0.4992,0.4998,0.5018,0.5029,0.5038,0.503,0.5025,0.4998,0.4999,0.4977,0.4972,0.4968,0.4929,0.4956,0.495,0.5012,0.5012,0.5012,0,0,0.4499,0.4606,0.4627,0.4747,0.4792,0.4805,0.4904,0.4909,0.4911,0.499,0.4962,0.5008,0.5029,0.5005,0.4994,0.5003,0.4945,0.4965,0.4961,0.4924,0.4953,0.4947,0.4941,0.5011,0.5011,0.5011,0,0,0.4357,0.4464,0.4477,0.4535,0.4631,0.4693,0.4703,0.479,0.4815,0.4831,0.4889,0.4921,0.4922,0.4939,0.4951,0.491,0.4923,0.4911,0.4843,0.4871,0.4866,0.4862,0.4836,0.483,0.4904,0.4904,0.4904,0,0.424,0.4332,0.4458,0.4479,0.4526,0.4645,0.4652,0.4668,0.4737,0.4774,0.48,0.4872,0.4885,0.4897,0.4878,0.4896,0.4901,0.4871,0.4865,0.4861,0.4857,0.4833,0.4826,0.4902,0.4902,0.4903,0.4903,0,0.4156,0.4208,0.4192,0.4311,0.4346,0.4361,0.4454,0.4475,0.4554,0.4617,0.4666,0.4719,0.4769,0.4785,0.4811,0.48,0.4807,0.4864,0.4883,0.4849,0.4825,0.4819,0.4899,0.49,0.49,0.4901,0,0,0.3959,0.4123,0.4116,0.4176,0.4294,0.4312,0.4314,0.44,0.4415,0.4484,0.4525,0.4566,0.4641,0.4655,0.4717,0.4731,0.4706,0.477,0.4772,0.4744,0.4728,0.449,0.4461,0.4781,0.478,0.4779,0.4716,0,0.3875,0.392,0.403,0.4027,0.4068,0.4194,0.4192,0.4261,0.4337,0.4371,0.4473,0.4505,0.4575,0.4612,0.4638,0.4702,0.4691,0.4714,0.4762,0.4761,0.4555,0.4446,0.4245,0.4149,0.471,0.4709,0.4708,0,0.3794,0.3857,0.3881,0.3994,0.4017,0.4007,0.4105,0.4122,0.4196,0.426,0.4338,0.441,0.4446,0.451,0.4576,0.4595,0.4624,0.467,0.4671,0.4447,0.4509,0.4276,0.4118,0.4077,0.47,0.47,0.4701,0,0.3687,0.3754,0.3799,0.383,0.394,0.3958,0.4006,0.4084,0.4113,0.4177,0.4202,0.4295,0.4307,0.4405,0.4456,0.4534,0.4493,0.4634,0.4441,0.4426,0.4251,0.4219,0.4049,0.4635,0.4635,0.4635,0.4635,0,0.3636,0.3654,0.3735,0.3758,0.376,0.386,0.3868,0.3932,0.3994,0.3995,0.412,0.4112,0.4277,0.4285,0.4392,0.4328,0.4441,0.4359,0.4371,0.4225,0.4193,0.4149,0.4158,0.4633,0.4633,0.4634,0.4634,0,0.3575,0.3627,0.3649,0.3719,0.3721,0.3718,0.3783,0.3783,0.3854,0.3852,0.3864,0.3941,0.3931,0.4036,0.4128,0.4169,0.4062,0.4146,0.3911,0.3891,0.3685,0.3698,0.3362,0.3278,0.3955,0.3948,0.3942,0,0.3624,0.3614,0.3601,0.3573,0.3607,0.3613,0.3612,0.3695,0.3699,0.3736,0.3711,0.3679,0.3621,0.361,0.3653,0.3695,0.3736,0.3539,0.3638,0.3547,0.358,0.3528,0.3485,0.3418,0.3408,0.34,0.3394,0,0.3681,0.3615,0.3612,0.3514,0.3472,0.3456,0.3459,0.3433,0.3505,0.3477,0.3386,0.3327,0.3251,0.3145,0.314,0.3192,0.3338,0.3375,0.338,0.3154,0.2992,0.296,0.3576,0.3325,0.3332,0.3337,0.3341,0.3344,0.3699,0.3643,0.3542,0.3426,0.3378,0.3274,0.3181,0.3185,0.3111,0.3007,0.3064,0.2898,0.2844,0.2782,0.2776,0.2668,0.2794,0.2712,0.2742,0.2705,0.2552,0.2932,0.2633,0.2636,0.2638,0.264,0.2642,0,0.3647,0.3542,0.3469,0.327,0.3137,0.3145,0.3046,0.2914,0.2733,0.2711,0.2587,0.2436,0.2301,0.2297,0.2217,0.2134,0.2129,0.21,0.2074,0.2082,0.2509,0.2416,0.1933,0.1933,0.1933,0.1933,0.1933,0.1933,0.3601,0.3431,0.3318,0.3028,0.2915,0.2665,0.255,0.2398,0.233,0.21,0.1978,0.1959,0.2004,0.1946,0.1839,0.1794,0.1763,0.1559,0.1679,0.2102,0.2167,0.2229,0.2145,0.1612,0.1612,0.1179,0.1176,0.1173]},{"header":{"parameterUnit":"m.s-1","parameterCategory":2,"la1":30.2991,"la2":30.254,"lo1":-89.0895,"lo2":-89.0444,"dy":0.0017,"dx":0.0017,"nx":28,"ny":28,"refTime":"2024-07-29T09:00:00:Z","depth":"0","parameterNumber":3,"parameterNumberName":"V-component_of_CURRENTS"},"data":[0,0,0,0,0,0,0,0,0,0,0,0,0,0,0,0,0,0,0,0,0,0,0,0,0,0,0,0,0,0,0,0,0,0,0,0,0,0,0,0,0,0,0,0,0,0,0,0,0,0,0,0,0,0,0,0,0,0,-0.0477,-0.0479,0,-0.0605,-0.0606,-0.0607,-0.0641,-0.0641,-0.0641,-0.064,-0.066,-0.0661,-0.0662,0,0,0,0,0,0,0,0,0,0,0,0,0,-0.022,-0.0224,-0.0477,-0.048,-0.0482,-0.0605,-0.0606,-0.0607,-0.0641,-0.0641,-0.0641,-0.064,-0.066,-0.0661,-0.0662,0,0,0,0,0,0,0,0,0,0,0,0,0,-0.0331,-0.0226,-0.0477,-0.0519,-0.0524,-0.0605,-0.0606,-0.0607,-0.0641,-0.0641,-0.0641,-0.064,-0.066,-0.0661,-0.0662,-0.0671,0,0,-0.0665,-0.0665,0,0,0,0,0,0,0,0,-0.0325,-0.034,-0.051,-0.0516,-0.0522,-0.0613,-0.0523,-0.0626,-0.0641,-0.0589,-0.064,-0.064,-0.0639,-0.0642,-0.0658,-0.0672,-0.0673,-0.0665,-0.0665,-0.0666,-0.0666,0,0,0,0,0,0,0,-0.0317,-0.0335,-0.0521,-0.0513,-0.052,-0.0517,-0.0532,-0.0542,-0.0606,-0.0594,-0.0598,-0.0624,-0.0641,-0.0657,-0.0658,-0.0673,-0.0665,-0.0666,-0.0666,-0.0667,-0.0671,-0.0671,0,0,0,0,0,0,-0.0319,-0.0328,-0.0517,-0.0525,-0.0429,-0.0522,-0.0539,-0.0578,-0.0608,-0.0616,-0.0624,-0.0625,-0.0655,-0.0657,-0.0659,-0.0634,-0.0666,-0.0667,-0.0667,-0.0672,-0.0671,-0.0671,0,0,0,0,0,0,-0.0313,-0.0335,-0.0512,-0.0433,-0.0457,-0.0528,-0.0571,-0.0581,-0.0598,-0.0634,-0.0638,-0.0631,-0.0655,-0.0658,-0.0658,-0.0636,-0.0667,-0.0668,-0.0672,-0.0672,-0.0671,-0.0607,0,0,0,0,0,0,-0.0306,-0.0333,-0.0336,-0.0435,-0.0462,-0.054,-0.0573,-0.0584,-0.0618,-0.062,-0.0641,-0.0644,-0.0655,-0.0657,-0.0659,-0.0638,-0.0669,-0.0673,-0.0672,-0.0671,-0.061,-0.0604,-0.06,0,0,0,0,0,-0.0296,-0.0294,-0.0335,-0.0357,-0.0473,-0.054,-0.0551,-0.0596,-0.0618,-0.0612,-0.0632,-0.0643,-0.0653,-0.0657,-0.066,-0.0639,-0.0673,-0.0672,-0.0671,-0.0612,-0.0606,-0.06,0,0,0,0,0,0,-0.0178,-0.0302,-0.0348,-0.0384,-0.0454,-0.0548,-0.0539,-0.0594,-0.061,-0.0601,-0.0639,-0.0642,-0.0635,-0.0649,-0.0653,-0.0639,-0.0664,-0.0664,-0.0618,-0.0612,-0.0607,-0.0535,-0.067,0,0,0,0,0,-0.0161,-0.019,-0.0314,-0.0336,-0.0367,-0.0458,-0.0485,-0.0529,-0.0574,-0.0582,-0.0611,-0.0627,-0.0635,-0.0633,-0.0644,-0.0635,-0.062,-0.0624,-0.0619,-0.0614,-0.0559,-0.0557,-0.0545,-0.0667,-0.0667,-0.0667,0,0,-0.0122,-0.0191,-0.0209,-0.0311,-0.0361,-0.0381,-0.0469,-0.0505,-0.0508,-0.0578,-0.0567,-0.0612,-0.0632,-0.0622,-0.0619,-0.0627,-0.0572,-0.0613,-0.0609,-0.0554,-0.0554,-0.0542,-0.0531,-0.0667,-0.0667,-0.0667,0,0,-0.0043,-0.0121,-0.0114,-0.0164,-0.0247,-0.0309,-0.0323,-0.0423,-0.0446,-0.0465,-0.0514,-0.0539,-0.056,-0.057,-0.0575,-0.0547,-0.0551,-0.0566,-0.0471,-0.0472,-0.0461,-0.0451,-0.041,-0.0397,-0.0556,-0.0556,-0.0556,0,0.0017,-0.001,-0.0115,-0.0115,-0.0136,-0.0272,-0.0258,-0.0304,-0.039,-0.039,-0.0439,-0.0476,-0.052,-0.0489,-0.0491,-0.053,-0.0519,-0.0495,-0.0462,-0.0452,-0.0443,-0.0404,-0.039,-0.0553,-0.0553,-0.0554,-0.0554,0,0.0093,0.0081,0.0089,0.0039,0.0004,-0.0007,-0.0104,-0.0129,-0.0191,-0.0243,-0.025,-0.0328,-0.0336,-0.0383,-0.0426,-0.0389,-0.0398,-0.0463,-0.0471,-0.0426,-0.0388,-0.0375,-0.0549,-0.055,-0.0551,-0.0551,0,0,0.0208,0.0153,0.016,0.0174,0.0084,0.0067,0.0066,0.0028,0.0052,-0.0042,-0.0001,-0.0079,-0.0142,-0.0151,-0.0235,-0.0253,-0.0215,-0.0322,-0.0324,-0.0265,-0.0175,-0.0188,-0.0175,-0.0284,-0.0281,-0.0279,-0.0171,0,0.0306,0.0356,0.0288,0.0346,0.0364,0.0261,0.0277,0.0231,0.0175,0.0179,0.0089,0.0086,-0.0048,-0.0059,-0.0096,-0.0193,-0.0177,-0.0234,-0.0237,-0.0234,-0.0241,-0.016,-0.016,-0.0065,-0.0158,-0.0156,-0.0154,0,0.0411,0.0429,0.0507,0.051,0.0509,0.0523,0.053,0.0519,0.048,0.0443,0.0412,0.0327,0.0292,0.0161,0.0083,0.005,-0.0023,-0.0103,-0.0103,-0.0113,-0.0223,-0.0128,-0.0037,-0.0111,-0.0134,-0.0136,-0.0137,0,0.0571,0.0586,0.0662,0.0662,0.064,0.0674,0.0657,0.0621,0.0626,0.062,0.0629,0.0562,0.0532,0.0426,0.0237,0.0173,0.0161,0.0047,-0.0009,-0.001,-0.0002,-0.0007,0.0036,0.0053,0.0053,0.0052,0.0052,0,0.0706,0.0771,0.075,0.0801,0.0882,0.0826,0.0901,0.0872,0.0861,0.0887,0.0781,0.0792,0.059,0.0523,0.0356,0.0233,0.0262,0.0068,0.003,0.0018,0.0014,-0.0047,-0.0112,0.0056,0.0056,0.0055,0.0054,0,0.0869,0.086,0.0943,0.0957,0.0964,0.1025,0.1018,0.1049,0.1043,0.1081,0.1088,0.0992,0.0895,0.0713,0.0551,0.0397,0.0234,0.0227,0.0249,0.0211,0.0059,-0.0002,0.0052,0.0025,0.0204,0.0205,0.0205,0,0.0952,0.1021,0.1062,0.108,0.1087,0.1145,0.1158,0.1146,0.1161,0.1185,0.1207,0.1159,0.1089,0.0885,0.063,0.043,0.0297,0.0308,0.0175,0.0115,0.0017,-0.0025,-0.0056,0.0217,0.0217,0.0218,0.0218,0,0.1088,0.1105,0.114,0.1183,0.1213,0.1251,0.1276,0.1326,0.1313,0.1353,0.137,0.1342,0.116,0.0939,0.0686,0.0517,0.0265,0.0309,0.0236,0.0057,0.0029,-0.0038,0.0105,0.0222,0.0221,0.0221,0.0221,0.0221,0.1149,0.118,0.1195,0.1229,0.1266,0.1307,0.1335,0.137,0.1424,0.1451,0.1461,0.1429,0.1189,0.0822,0.0627,0.0308,0.0287,0.0177,0.0122,0.0098,0.0035,0.0215,0.0273,0.0273,0.0273,0.0272,0.0272,0,0.1151,0.1165,0.121,0.1234,0.1268,0.1291,0.1349,0.137,0.1424,0.1491,0.1502,0.1382,0.1083,0.0781,0.0361,0.0154,0.0067,0.0049,-0.0013,-0.003,0.0132,0.0092,0.0125,0.0125,0.0125,0.0125,0.0125,0.0125,0.1138,0.1146,0.1157,0.119,0.1224,0.1246,0.1275,0.134,0.1394,0.1436,0.1431,0.1424,0.1233,0.0553,0.0097,-0.0015,-0.0138,-0.0157,-0.021,-0.0127,-0.012,-0.0113,-0.0164,-0.0185,-0.0185,-0.0346,-0.0348,-0.035]}],[{"header":{"parameterUnit":"m.s-1","parameterCategory":2,"la1":30.2991,"la2":30.254,"lo1":-89.0895,"lo2":-89.0444,"dy":0.0017,"dx":0.0017,"nx":28,"ny":28,"refTime":"2024-07-29T09:00:00:Z","depth":"2","parameterNumber":2,"parameterNumberName":"U-component_of_CURRENTS"},"data":[0,0,0,0,0,0,0,0,0,0,0,0,0,0,0,0,0,0,0,0,0,0,0,0,0,0,0,0,0,0,0,0,0,0,0,0,0,0,0,0,0,0,0,0,0,0,0,0,0,0,0,0,0,0,0,0,0,0,0.275,0.2751,0,0.2802,0.2803,0.2803,0.278,0.2779,0.2778,0.2777,0.2784,0.2785,0.2787,0,0,0,0,0,0,0,0,0,0,0,0,0,0.2756,0.2755,0.275,0.2751,0.2752,0.2802,0.2803,0.2803,0.278,0.2779,0.2778,0.2776,0.2784,0.2785,0.2787,0,0,0,0,0,0,0,0,0,0,0,0,0,0.2772,0.2755,0.275,0.2748,0.2749,0.2802,0.2803,0.2803,0.278,0.2779,0.2777,0.2776,0.2784,0.2785,0.2787,0.2829,0,0,0.2792,0.2793,0,0,0,0,0,0,0,0,0.2771,0.2772,0.2748,0.2749,0.2749,0.2785,0.2808,0.281,0.2781,0.2766,0.2777,0.2775,0.2784,0.2785,0.2795,0.2829,0.2829,0.2792,0.2793,0.2794,0.2795,0,0,0,0,0,0,0,0.277,0.277,0.2768,0.2749,0.275,0.2789,0.2788,0.2809,0.278,0.2767,0.2766,0.2777,0.2783,0.2794,0.2795,0.2829,0.2792,0.2794,0.2795,0.2796,0.3014,0.3018,0,0,0,0,0,0,0.2764,0.2768,0.2766,0.277,0.276,0.2789,0.2788,0.2773,0.278,0.2781,0.2778,0.2775,0.2791,0.2793,0.2795,0.2917,0.2794,0.2796,0.2797,0.3009,0.3015,0.302,0,0,0,0,0,0,0.2764,0.2762,0.2764,0.2774,0.2777,0.279,0.2774,0.2775,0.2826,0.279,0.2789,0.2832,0.279,0.2793,0.2871,0.2914,0.2797,0.2798,0.3004,0.3011,0.3017,0.3114,0,0,0,0,0,0,0.2763,0.2761,0.2782,0.2773,0.2777,0.2828,0.2776,0.2777,0.2834,0.2832,0.2836,0.2832,0.2789,0.2869,0.2873,0.2914,0.28,0.2997,0.3007,0.3015,0.3104,0.3123,0.3139,0,0,0,0,0,0.2763,0.2787,0.2782,0.2784,0.2792,0.2831,0.2839,0.2841,0.2839,0.2878,0.2895,0.2834,0.2927,0.2875,0.2878,0.292,0.2993,0.3004,0.3015,0.3097,0.312,0.3139,0,0,0,0,0,0,0.2791,0.2787,0.2781,0.28,0.2831,0.2829,0.2875,0.2882,0.2928,0.2936,0.2899,0.2899,0.2981,0.2964,0.2907,0.3019,0.295,0.2962,0.3012,0.3033,0.305,0.3013,0.2801,0,0,0,0,0,0.281,0.2835,0.2834,0.286,0.2879,0.2892,0.2922,0.2925,0.295,0.297,0.2976,0.2996,0.3026,0.304,0.3064,0.3131,0.3098,0.3166,0.3183,0.3197,0.3177,0.3233,0.3251,0.3055,0.3055,0.3055,0,0,0.2821,0.2835,0.2842,0.2873,0.2894,0.2918,0.2907,0.2965,0.2989,0.2966,0.3031,0.3066,0.3066,0.3132,0.3166,0.312,0.3235,0.3211,0.3222,0.3193,0.3246,0.3264,0.328,0.3062,0.3061,0.306,0,0,0.2842,0.2877,0.289,0.2929,0.2981,0.2992,0.3023,0.3057,0.3081,0.3161,0.3148,0.3218,0.3269,0.3264,0.3268,0.3408,0.3336,0.3434,0.3472,0.3529,0.3543,0.3556,0.3512,0.3519,0.3429,0.3429,0.343,0,0.2839,0.2864,0.291,0.294,0.2973,0.3027,0.3046,0.309,0.315,0.3182,0.3198,0.3309,0.3317,0.3368,0.3415,0.3437,0.3434,0.338,0.3545,0.3557,0.3568,0.352,0.3527,0.3435,0.3435,0.3434,0.3434,0,0.2851,0.2896,0.2924,0.2963,0.3016,0.3064,0.311,0.3185,0.3242,0.3269,0.338,0.3423,0.3471,0.3509,0.3498,0.3589,0.3548,0.3566,0.3473,0.3593,0.3535,0.3541,0.3444,0.3442,0.344,0.3439,0,0,0.2714,0.2887,0.2885,0.2922,0.3036,0.3053,0.3151,0.3218,0.3284,0.3372,0.3439,0.3526,0.3567,0.3577,0.3598,0.3649,0.3725,0.3648,0.3649,0.3568,0.3792,0.3532,0.3511,0.3789,0.3792,0.3794,0.3707,0,0.2682,0.2747,0.285,0.2908,0.2938,0.3061,0.3138,0.3225,0.3337,0.3432,0.3494,0.3564,0.3584,0.3625,0.3694,0.3699,0.3752,0.3742,0.3718,0.3715,0.3442,0.3514,0.3303,0.319,0.3712,0.3713,0.3714,0,0.2604,0.2674,0.2741,0.2883,0.2904,0.296,0.3107,0.3195,0.3361,0.3444,0.3554,0.3611,0.3656,0.3702,0.375,0.3748,0.3791,0.3808,0.3806,0.3524,0.3466,0.3167,0.3179,0.3722,0.3722,0.3721,0.372,0,0.2471,0.2566,0.2628,0.2677,0.2859,0.2918,0.3007,0.3192,0.3261,0.3448,0.3486,0.361,0.3584,0.371,0.3694,0.3758,0.3731,0.3818,0.3624,0.3602,0.3388,0.3341,0.3921,0.3921,0.3922,0.3922,0.3922,0,0.2432,0.2481,0.256,0.2635,0.2673,0.2815,0.2921,0.3068,0.3222,0.3266,0.3456,0.3458,0.3596,0.3584,0.3684,0.3574,0.3706,0.3606,0.3573,0.3411,0.337,0.3815,0.3804,0.3918,0.3919,0.392,0.392,0,0.2395,0.2481,0.2512,0.2621,0.2659,0.2681,0.2832,0.2892,0.3056,0.312,0.3143,0.3266,0.3241,0.3326,0.3426,0.3427,0.3453,0.3413,0.3137,0.3072,0.3307,0.3304,0.322,0.321,0.3202,0.3195,0.319,0,0.2432,0.2408,0.245,0.2468,0.2555,0.2601,0.2653,0.281,0.2846,0.2967,0.2936,0.2944,0.292,0.2888,0.293,0.2973,0.3185,0.2777,0.2883,0.3264,0.3242,0.3251,0.3258,0.2644,0.2634,0.2626,0.262,0,0.2401,0.2364,0.2442,0.2419,0.2438,0.2453,0.2509,0.2487,0.2623,0.2622,0.2597,0.2596,0.2546,0.2446,0.2437,0.2483,0.2754,0.2608,0.3104,0.2825,0.2705,0.2688,0.2718,0.2549,0.2556,0.2561,0.2565,0.2568,0.2335,0.2315,0.2323,0.232,0.2329,0.2289,0.2255,0.2254,0.2226,0.22,0.2261,0.2186,0.2198,0.2076,0.2025,0.2021,0.2262,0.2264,0.2297,0.2337,0.2256,0.2126,0.1841,0.1844,0.1846,0.1849,0.1851,0,0.2144,0.2187,0.2197,0.2177,0.2114,0.2178,0.2133,0.2046,0.1908,0.1923,0.1877,0.1705,0.1613,0.1668,0.1551,0.1546,0.1647,0.1506,0.1664,0.1731,0.1792,0.1694,0.1125,0.1123,0.1121,0.1119,0,0,0.2093,0.2055,0.2068,0.1942,0.1933,0.1793,0.1738,0.1649,0.1615,0.1493,0.1439,0.1546,0.1592,0.1341,0.1307,0.1194,0.1469,0.1149,0.1728,0.198,0.2039,0.2214,0.2133,0,0,0,0,0]},{"header":{"parameterUnit":"m.s-1","parameterCategory":2,"la1":30.2991,"la2":30.254,"lo1":-89.0895,"lo2":-89.0444,"dy":0.0017,"dx":0.0017,"nx":28,"ny":28,"refTime":"2024-07-29T09:00:00:Z","depth":"2","parameterNumber":3,"parameterNumberName":"V-component_of_CURRENTS"},"data":[0,0,0,0,0,0,0,0,0,0,0,0,0,0,0,0,0,0,0,0,0,0,0,0,0,0,0,0,0,0,0,0,0,0,0,0,0,0,0,0,0,0,0,0,0,0,0,0,0,0,0,0,0,0,0,0,0,0,0.0474,0.0474,0,0.0499,0.0499,0.0499,0.046,0.0459,0.0458,0.0457,0.0329,0.0327,0.0325,0,0,0,0,0,0,0,0,0,0,0,0,0,0.0368,0.0371,0.0474,0.0474,0.0475,0.0499,0.0499,0.0499,0.0461,0.0459,0.0458,0.0456,0.033,0.0327,0.0324,0,0,0,0,0,0,0,0,0,0,0,0,0,0.0404,0.0371,0.0474,0.046,0.0459,0.0499,0.0499,0.0499,0.0461,0.0459,0.0457,0.0456,0.0331,0.0328,0.0324,0.0337,0,0,0.0313,0.0312,0,0,0,0,0,0,0,0,0.0402,0.0408,0.0461,0.0461,0.046,0.0477,0.0415,0.0438,0.0461,0.0458,0.0457,0.0455,0.0367,0.0361,0.0368,0.0331,0.0326,0.0313,0.0311,0.031,0.0309,0,0,0,0,0,0,0,0.04,0.0406,0.0481,0.0462,0.0461,0.0445,0.0448,0.042,0.0417,0.0458,0.0456,0.0463,0.0365,0.0372,0.0365,0.0324,0.0313,0.031,0.0308,0.0307,0.0221,0.022,0,0,0,0,0,0,0.0405,0.0405,0.0481,0.0482,0.0429,0.0448,0.0451,0.0471,0.0421,0.0414,0.0464,0.0461,0.0379,0.0369,0.036,0.0307,0.031,0.0306,0.0304,0.0221,0.022,0.022,0,0,0,0,0,0,0.0403,0.0412,0.048,0.0444,0.0452,0.0452,0.0474,0.0473,0.0455,0.0428,0.0416,0.0445,0.0377,0.0365,0.0334,0.0304,0.0305,0.0302,0.0221,0.0221,0.022,0.0243,0,0,0,0,0,0,0.04,0.0411,0.0411,0.0446,0.0454,0.0495,0.0476,0.0475,0.0465,0.046,0.0408,0.0397,0.0375,0.034,0.0331,0.0299,0.0299,0.0221,0.0221,0.022,0.0242,0.0243,0.0244,0,0,0,0,0,0.0396,0.0401,0.0412,0.042,0.0461,0.0496,0.0499,0.049,0.0465,0.0465,0.0437,0.0397,0.033,0.0338,0.0327,0.0293,0.0221,0.0221,0.022,0.0242,0.0243,0.0244,0,0,0,0,0,0,0.0337,0.0399,0.0411,0.0429,0.046,0.049,0.0482,0.0482,0.0462,0.044,0.0408,0.0395,0.0357,0.0329,0.0338,0.0268,0.0263,0.0261,0.0283,0.0283,0.0284,0.0293,0.0296,0,0,0,0,0,0.0334,0.0363,0.0412,0.0426,0.0438,0.0458,0.0463,0.0465,0.0462,0.0451,0.0416,0.0376,0.0354,0.0321,0.03,0.0263,0.025,0.023,0.0231,0.0232,0.0232,0.0209,0.0208,0.0219,0.0219,0.0219,0,0,0.0322,0.0352,0.0371,0.0417,0.0433,0.0467,0.0455,0.0462,0.0474,0.0438,0.0413,0.0383,0.035,0.0319,0.0295,0.0282,0.0223,0.0231,0.0232,0.0232,0.0208,0.0207,0.0206,0.0218,0.0219,0.0219,0,0,0.0319,0.0333,0.0365,0.0393,0.0423,0.0445,0.0445,0.0465,0.0449,0.0442,0.0417,0.0378,0.033,0.0309,0.0292,0.0283,0.0241,0.0254,0.0247,0.0225,0.0224,0.0223,0.0211,0.0209,0.0239,0.0239,0.024,0,0.0301,0.0356,0.0373,0.0406,0.0433,0.0437,0.0476,0.047,0.0471,0.0459,0.0428,0.0371,0.0331,0.0309,0.0297,0.0282,0.0266,0.0247,0.0227,0.0225,0.0224,0.0212,0.0209,0.0241,0.024,0.024,0.024,0,0.0341,0.0374,0.0386,0.0447,0.0466,0.0498,0.0512,0.0503,0.0476,0.0468,0.0426,0.0383,0.0349,0.0317,0.0297,0.0261,0.0253,0.0244,0.0226,0.0224,0.0212,0.0209,0.0242,0.0242,0.0241,0.0241,0,0,0.0361,0.0413,0.0425,0.0463,0.0497,0.0531,0.0528,0.0551,0.0549,0.0497,0.0495,0.042,0.0377,0.0356,0.0315,0.0272,0.024,0.024,0.0238,0.0233,0.0192,0.0166,0.016,0.0221,0.022,0.022,0.019,0,0.0405,0.0486,0.049,0.0563,0.0615,0.0606,0.0617,0.0614,0.0583,0.0571,0.0498,0.0479,0.0399,0.038,0.032,0.0281,0.023,0.0249,0.0191,0.0189,0.017,0.0155,0.0183,0.0157,0.0187,0.0186,0.0186,0,0.0467,0.0521,0.0602,0.0654,0.0671,0.0697,0.0724,0.0728,0.069,0.0655,0.0593,0.0549,0.0488,0.0424,0.0316,0.0329,0.0252,0.0202,0.02,0.0165,0.0156,0.0161,0.0149,0.018,0.0181,0.0181,0.0181,0,0.053,0.0601,0.0674,0.0699,0.0749,0.0761,0.0777,0.0751,0.0757,0.0713,0.0711,0.0619,0.0593,0.0484,0.0352,0.0338,0.024,0.0222,0.0123,0.0121,0.0129,0.0128,0.0133,0.0133,0.0133,0.0133,0.0133,0,0.0598,0.0656,0.071,0.0761,0.0824,0.0827,0.0863,0.0846,0.0838,0.0845,0.076,0.0747,0.06,0.0521,0.0392,0.0248,0.0269,0.0119,0.0106,0.0137,0.0138,0.0144,0.0145,0.0132,0.0132,0.0133,0.0133,0,0.0645,0.0686,0.0771,0.084,0.0857,0.0898,0.0929,0.0946,0.0932,0.0946,0.0945,0.0859,0.0744,0.0596,0.0434,0.0311,0.018,0.0117,0.0164,0.0155,0.0069,0.0072,0.0022,0.0021,0.002,0.0019,0.0018,0,0.0675,0.0738,0.0831,0.0866,0.089,0.0946,0.0974,0.0984,0.0998,0.1001,0.1014,0.0931,0.0844,0.0613,0.0405,0.0203,0.0157,0.0083,0.005,0.0063,0.0055,0.006,0.0065,0.0077,0.0076,0.0076,0.0076,0,0.0738,0.077,0.083,0.0909,0.0953,0.1005,0.1047,0.1083,0.1089,0.1105,0.1091,0.1041,0.0837,0.063,0.0364,0.0223,0.0123,0.0071,0.0081,0.0093,0.0109,0.0103,0.0107,0.0074,0.0075,0.0075,0.0075,0.0075,0.077,0.0803,0.0877,0.0935,0.0986,0.1032,0.106,0.1106,0.114,0.1145,0.1128,0.105,0.0874,0.0516,0.031,0.0097,0.0097,0.0011,0.0013,0.0016,0.0021,0.0032,-0.0015,-0.0015,-0.0015,-0.0016,-0.0016,0,0.0801,0.0832,0.0894,0.0952,0.0989,0.1023,0.1082,0.1097,0.1119,0.1147,0.1126,0.0933,0.074,0.0532,0.0228,0.0042,0.0036,-0.0031,0.0015,0.0018,0.002,0.0027,-0.0008,-0.0008,-0.0009,-0.001,0,0,0.0816,0.0862,0.0877,0.0928,0.0967,0.0992,0.1014,0.105,0.1077,0.1062,0.1033,0.1014,0.0792,0.0571,0.0338,0.0164,0.0125,0.0121,0.0136,0.0221,0.0225,0.0067,0.0082,0,0,0,0,0]}],[{"header":{"parameterUnit":"m.s-1","parameterCategory":2,"la1":30.2991,"la2":30.254,"lo1":-89.0895,"lo2":-89.0444,"dy":0.0017,"dx":0.0017,"nx":28,"ny":28,"refTime":"2024-07-29T09:00:00:Z","depth":"4","parameterNumber":2,"parameterNumberName":"U-component_of_CURRENTS"},"data":[0,0,0,0,0,0,0,0,0,0,0,0,0,0,0,0,0,0,0,0,0,0,0,0,0,0,0,0,0,0,0,0,0,0,0,0,0,0,0,0,0,0,0,0,0,0,0,0,0,0,0,0,0,0,0,0,0,0,0.0426,0.0427,0,0.0448,0.0448,0.0448,0.0453,0.0453,0.0454,0.0454,0.0475,0.0475,0.0476,0,0,0,0,0,0,0,0,0,0,0,0,0,0.0442,0.0441,0.0426,0.0427,0.0428,0.0448,0.0448,0.0448,0.0453,0.0453,0.0454,0.0454,0.0475,0.0475,0.0476,0,0,0,0,0,0,0,0,0,0,0,0,0,0.0441,0.0441,0.0426,0.0437,0.0439,0.0448,0.0448,0.0448,0.0453,0.0453,0.0454,0.0454,0.0475,0.0475,0.0476,0.0467,0,0,0.0477,0.0477,0,0,0,0,0,0,0,0,0.0441,0.044,0.0435,0.0436,0.0438,0.0453,0.0462,0.0456,0.0453,0.0442,0.0454,0.0455,0.0471,0.0472,0.0467,0.0468,0.0469,0.0477,0.0477,0.0477,0.0477,0,0,0,0,0,0,0,0.0441,0.044,0.043,0.0436,0.0438,0.0459,0.0459,0.0461,0.0449,0.0443,0.0444,0.0455,0.0471,0.0466,0.0467,0.047,0.0477,0.0477,0.0477,0.0477,0.0555,0.0556,0,0,0,0,0,0,0.0446,0.0439,0.0429,0.0431,0.0447,0.0459,0.0458,0.0443,0.0449,0.0452,0.0455,0.0456,0.0466,0.0467,0.0468,0.0557,0.0477,0.0477,0.0478,0.0553,0.0555,0.0557,0,0,0,0,0,0,0.0446,0.0444,0.0428,0.0442,0.0442,0.0458,0.0442,0.0444,0.0465,0.0459,0.0461,0.0478,0.0466,0.0468,0.0491,0.0554,0.0478,0.0478,0.0551,0.0553,0.0556,0.0672,0,0,0,0,0,0,0.0445,0.0443,0.0436,0.0441,0.0441,0.045,0.0442,0.0444,0.0472,0.0473,0.0479,0.048,0.0467,0.0491,0.0492,0.0553,0.0478,0.0548,0.0552,0.0555,0.0666,0.0678,0.0689,0,0,0,0,0,0.0445,0.0436,0.0434,0.0434,0.0429,0.0451,0.0453,0.0464,0.0473,0.0484,0.0491,0.0481,0.0514,0.0492,0.0493,0.0556,0.0547,0.0551,0.0555,0.0661,0.0676,0.0689,0,0,0,0,0,0,0.0457,0.0437,0.0434,0.0424,0.0445,0.0455,0.0474,0.0481,0.0494,0.0504,0.0494,0.0495,0.0533,0.0526,0.0502,0.0587,0.0534,0.0538,0.0614,0.0628,0.0639,0.0662,0.0478,0,0,0,0,0,0.0451,0.0427,0.0437,0.0434,0.0451,0.0467,0.0481,0.049,0.0504,0.0511,0.0526,0.0538,0.0546,0.0572,0.0565,0.0618,0.061,0.0661,0.0673,0.0683,0.0702,0.0721,0.0737,0.0571,0.0571,0.057,0,0,0.046,0.0445,0.0436,0.0434,0.0455,0.0485,0.0476,0.051,0.0531,0.0512,0.056,0.0567,0.056,0.0609,0.063,0.062,0.073,0.0688,0.0697,0.071,0.0728,0.0744,0.0758,0.0573,0.0573,0.0572,0,0,0.0473,0.0456,0.045,0.0469,0.0499,0.0511,0.053,0.0563,0.0575,0.0614,0.0607,0.0655,0.0676,0.0698,0.0704,0.0778,0.077,0.0792,0.0899,0.0919,0.0933,0.0945,0.0975,0.0988,0.0825,0.0825,0.0825,0,0.0496,0.0479,0.0462,0.048,0.051,0.0532,0.0569,0.058,0.0618,0.0654,0.0643,0.07,0.0716,0.0768,0.0827,0.0807,0.0823,0.0848,0.0936,0.0947,0.0958,0.0984,0.0998,0.0831,0.083,0.083,0.0829,0,0.0505,0.0513,0.0528,0.0544,0.0569,0.0611,0.0634,0.0673,0.0705,0.0739,0.0795,0.0796,0.0854,0.087,0.089,0.0987,0.0976,0.0927,0.0902,0.0982,0.1005,0.1017,0.084,0.0837,0.0836,0.0834,0,0,0.0538,0.0531,0.0548,0.0568,0.0611,0.0639,0.0686,0.0753,0.0817,0.0842,0.0921,0.0963,0.1005,0.1016,0.1027,0.1075,0.1197,0.108,0.1078,0.1114,0.1268,0.1177,0.1181,0.1175,0.1177,0.1179,0.1261,0,0.0577,0.0609,0.059,0.0658,0.0701,0.0724,0.0768,0.0828,0.0889,0.0976,0.0986,0.1065,0.104,0.1107,0.1144,0.1196,0.1233,0.1181,0.1181,0.1182,0.1095,0.1193,0.1187,0.127,0.1273,0.1275,0.1276,0,0.061,0.0633,0.0693,0.0728,0.075,0.08,0.0906,0.0928,0.1038,0.1093,0.1166,0.12,0.1309,0.1247,0.1331,0.1311,0.1319,0.1315,0.1317,0.1199,0.1113,0.1168,0.1297,0.1296,0.1294,0.1293,0.1291,0,0.0661,0.0705,0.0754,0.0775,0.0825,0.0877,0.0909,0.1012,0.1046,0.12,0.1283,0.1359,0.1418,0.1435,0.1465,0.1442,0.1515,0.146,0.1348,0.1341,0.1344,0.133,0.1479,0.1479,0.1479,0.1478,0.1478,0,0.0699,0.0741,0.0799,0.0834,0.0915,0.0934,0.101,0.1083,0.1177,0.124,0.1355,0.1408,0.1477,0.1521,0.152,0.1487,0.1551,0.1394,0.1364,0.1393,0.1383,0.1354,0.1338,0.1481,0.1481,0.148,0.148,0,0.0724,0.075,0.0819,0.0907,0.0937,0.0999,0.1037,0.1097,0.1203,0.1291,0.1357,0.1502,0.1581,0.1592,0.1637,0.1549,0.1532,0.1476,0.1541,0.1507,0.1338,0.1328,0.1408,0.1406,0.1404,0.1402,0.1401,0,0.071,0.0765,0.0876,0.0914,0.0959,0.1017,0.1057,0.1127,0.1172,0.1307,0.1361,0.1502,0.1565,0.1559,0.1578,0.1558,0.1492,0.148,0.1393,0.1373,0.1336,0.1328,0.1321,0.1398,0.1397,0.1397,0.1396,0,0.0714,0.0782,0.0832,0.0927,0.0995,0.1006,0.1066,0.1104,0.1166,0.1275,0.1355,0.1408,0.147,0.1507,0.1496,0.1455,0.1511,0.1458,0.1461,0.1379,0.1361,0.1324,0.1319,0.1389,0.139,0.1391,0.1391,0,0.072,0.0752,0.0832,0.0905,0.0968,0.0993,0.1015,0.1052,0.109,0.1245,0.1256,0.1371,0.1458,0.1451,0.1438,0.1418,0.1378,0.1304,0.1314,0.1322,0.1249,0.121,0.1196,0,0,0,0,0,0.0711,0.0725,0.0787,0.0842,0.0904,0.0936,0.1011,0.1029,0.1112,0.1147,0.1189,0.1241,0.1272,0.1332,0.129,0.1387,0.1378,0.1329,0.1297,0.1351,0.1359,0.1277,0,0,0,0,0,0,0.0677,0.074,0.0762,0.0772,0.08,0.0839,0.0895,0.0961,0.096,0.1064,0.1098,0.1152,0.1211,0.1281,0.1264,0.1273,0.1223,0.138,0.1376,0.1346,0.1354,0.136,0.1278,0,0,0,0,0]},{"header":{"parameterUnit":"m.s-1","parameterCategory":2,"la1":30.2991,"la2":30.254,"lo1":-89.0895,"lo2":-89.0444,"dy":0.0017,"dx":0.0017,"nx":28,"ny":28,"refTime":"2024-07-29T09:00:00:Z","depth":"4","parameterNumber":3,"parameterNumberName":"V-component_of_CURRENTS"},"data":[0,0,0,0,0,0,0,0,0,0,0,0,0,0,0,0,0,0,0,0,0,0,0,0,0,0,0,0,0,0,0,0,0,0,0,0,0,0,0,0,0,0,0,0,0,0,0,0,0,0,0,0,0,0,0,0,0,0,0.0441,0.0441,0,0.0395,0.0395,0.0394,0.0377,0.0377,0.0378,0.0378,0.0351,0.035,0.0349,0,0,0,0,0,0,0,0,0,0,0,0,0,0.0386,0.0387,0.0441,0.0441,0.044,0.0396,0.0395,0.0393,0.0377,0.0377,0.0378,0.0379,0.0351,0.035,0.0348,0,0,0,0,0,0,0,0,0,0,0,0,0,0.0378,0.0388,0.0441,0.043,0.0429,0.0396,0.0395,0.0393,0.0377,0.0377,0.0378,0.0379,0.0352,0.035,0.0348,0.032,0,0,0.0343,0.0342,0,0,0,0,0,0,0,0,0.0379,0.038,0.0432,0.0431,0.0429,0.0397,0.0365,0.0371,0.0376,0.0392,0.0378,0.0379,0.037,0.0367,0.035,0.0319,0.0318,0.0342,0.0341,0.034,0.034,0,0,0,0,0,0,0,0.0379,0.0381,0.0418,0.0431,0.043,0.0384,0.0385,0.0365,0.0374,0.039,0.039,0.0392,0.0369,0.0352,0.0349,0.0317,0.0342,0.0341,0.034,0.0339,0.0248,0.0246,0,0,0,0,0,0,0.04,0.0382,0.042,0.0417,0.041,0.0385,0.0385,0.0403,0.0374,0.0371,0.0391,0.0391,0.0354,0.0351,0.0348,0.0336,0.034,0.0339,0.0338,0.0249,0.0247,0.0246,0,0,0,0,0,0,0.0399,0.0404,0.0422,0.0401,0.0401,0.0387,0.0405,0.0401,0.0396,0.0375,0.0372,0.0393,0.0355,0.0351,0.0332,0.0335,0.0338,0.0336,0.025,0.0248,0.0247,0.0298,0,0,0,0,0,0,0.0398,0.0405,0.0425,0.0403,0.0403,0.0409,0.0405,0.04,0.0398,0.0398,0.0375,0.0372,0.0355,0.0334,0.033,0.0332,0.0335,0.0252,0.0249,0.0247,0.0298,0.0298,0.0298,0,0,0,0,0,0.0396,0.0416,0.0426,0.0431,0.0432,0.0409,0.0404,0.0393,0.0397,0.0392,0.0374,0.0374,0.0315,0.0332,0.0327,0.0329,0.0253,0.025,0.0247,0.0298,0.0298,0.0298,0,0,0,0,0,0,0.0389,0.0416,0.0427,0.0452,0.0439,0.0409,0.0411,0.0399,0.0379,0.0387,0.0363,0.0358,0.0335,0.0318,0.0337,0.0289,0.0281,0.0277,0.0321,0.0321,0.0321,0.0348,0.0333,0,0,0,0,0,0.0403,0.0436,0.0433,0.0452,0.0455,0.0436,0.0429,0.0419,0.0399,0.0391,0.0378,0.0352,0.0314,0.031,0.0276,0.0262,0.023,0.0253,0.0253,0.0254,0.0267,0.02,0.0196,0.0236,0.0236,0.0236,0,0,0.0407,0.0426,0.0444,0.0455,0.0451,0.0446,0.0433,0.0429,0.0417,0.0392,0.0384,0.0353,0.0306,0.0281,0.027,0.0275,0.0224,0.025,0.0251,0.0265,0.0197,0.0193,0.019,0.0234,0.0235,0.0235,0,0,0.0419,0.045,0.0478,0.0471,0.0475,0.0461,0.0465,0.0448,0.0438,0.0419,0.0388,0.0359,0.0324,0.0286,0.026,0.0237,0.0219,0.023,0.0268,0.0202,0.0199,0.0196,0.0156,0.0149,0.0241,0.0241,0.0241,0,0.0417,0.0458,0.0474,0.0484,0.0481,0.0473,0.0473,0.0456,0.0431,0.0425,0.0425,0.0343,0.0319,0.0261,0.0268,0.024,0.0214,0.028,0.0206,0.0202,0.0198,0.0157,0.0149,0.0243,0.0243,0.0243,0.0243,0,0.0444,0.0469,0.048,0.0504,0.0496,0.0495,0.0479,0.0477,0.0472,0.0455,0.041,0.0357,0.0318,0.0295,0.0289,0.0244,0.0237,0.0208,0.0216,0.0198,0.0155,0.0145,0.0246,0.0245,0.0245,0.0244,0,0,0.0446,0.0493,0.0498,0.0506,0.0507,0.0497,0.0494,0.0481,0.0481,0.0449,0.043,0.0368,0.036,0.0329,0.0292,0.025,0.0212,0.0246,0.0242,0.0227,0.0093,0.0114,0.0105,0.018,0.0179,0.0177,0.0077,0,0.0457,0.0493,0.0508,0.0514,0.0521,0.0514,0.0508,0.0495,0.0484,0.0469,0.0409,0.0378,0.0362,0.0351,0.0306,0.0233,0.019,0.0244,0.0096,0.0092,0.0129,0.0095,0.0172,0.007,0.0067,0.0066,0.0065,0,0.0471,0.0493,0.0521,0.0525,0.0528,0.0535,0.0531,0.0517,0.0499,0.0491,0.0457,0.0424,0.0369,0.0349,0.0218,0.0261,0.0198,0.0132,0.0126,0.0126,0.0095,0.0086,0.0047,0.0048,0.0049,0.0051,0.0052,0,0.0462,0.0491,0.052,0.0521,0.0531,0.0545,0.0549,0.054,0.0534,0.0515,0.0516,0.0435,0.0394,0.0297,0.0203,0.0217,0.0047,0.0033,-0.0023,-0.0022,-0.003,-0.0026,-0.0072,-0.0071,-0.0071,-0.0071,-0.0071,0,0.0457,0.0472,0.053,0.0537,0.0558,0.056,0.0565,0.057,0.0568,0.0565,0.0538,0.0504,0.0383,0.0286,0.0199,0.0066,0.0036,-0.0016,-0.0051,-0.0008,-0.0,-0.0037,-0.0031,-0.0075,-0.0074,-0.0073,-0.0073,0,0.044,0.0479,0.0501,0.0542,0.0557,0.0572,0.059,0.06,0.0602,0.0596,0.06,0.0548,0.044,0.0304,0.0131,0.0058,-0.0074,-0.012,-0.0049,-0.008,-0.0094,-0.0085,-0.0181,-0.0181,-0.0181,-0.0182,-0.0182,0,0.0437,0.0456,0.0511,0.0537,0.0567,0.0587,0.0611,0.0621,0.0633,0.0615,0.0622,0.054,0.0487,0.0255,0.012,-0.007,-0.0096,-0.0165,-0.0129,-0.0082,-0.0108,-0.0099,-0.009,-0.0182,-0.0182,-0.0182,-0.0182,0,0.042,0.0456,0.0482,0.0544,0.0589,0.0603,0.0643,0.0654,0.0661,0.0662,0.0637,0.0549,0.042,0.0265,0.0113,-0.0024,-0.0116,-0.0167,-0.0167,-0.0134,-0.0085,-0.0108,-0.0099,-0.0183,-0.0182,-0.0182,-0.0182,0,0.0417,0.0435,0.0493,0.0542,0.0587,0.0627,0.0632,0.0656,0.0661,0.0667,0.0646,0.0537,0.0466,0.0287,0.0145,0.002,-0.0001,-0.0042,-0.0049,-0.005,0.0026,0.011,0.004,0,0,0,0,0,0.0417,0.0446,0.0489,0.0538,0.0584,0.0618,0.0662,0.0668,0.0679,0.0674,0.0665,0.056,0.0384,0.0306,0.0186,0.0136,-0.0034,-0.0009,-0.0086,-0.0186,-0.0185,-0.0115,0,0,0,0,0,0,0.0417,0.0462,0.0484,0.053,0.0567,0.0616,0.0648,0.0664,0.0652,0.0655,0.0563,0.053,0.0355,0.0453,0.0183,0.0147,0.0081,-0.0089,-0.0091,-0.0186,-0.0185,-0.0185,-0.0113,0,0,0,0,0]}]]